Glory Ace — 3FAF9 — position and weather

sailwx.info

Track history (hours):
 
Tides and Currents Weather Stations Pressure Air Temp Water Temp Dewpoint Dewpoint Depression Visibility Wind Speed Wind Dir Waves Ship Positions

Glory Ace

Last reported at 2015-Feb-05 11:19 UTC. Time now 2015-Mar-06 06:06 UTC.
Position S 26°53' E 153°40'.
Warning: this ship's position is 28 days out of date.

Length 190 m; draft 11.1 m.

Type: Cargo ship. MMSI: 357130000.

Date/timePositionNaut miles runAvg speedWind from/ knotsBaromVisibWave heightAir tempDewpointWater temp
2015-Feb-05 11:19S 26°53' E 153°40'911.6
2015-Feb-05 10:33S 27°02' E 153°39'1010.3
2015-Feb-05 09:33S 27°12' E 153°39'9 9.2
2015-Feb-05 08:33S 27°22' E 153°39'9 9.2
2015-Feb-05 07:33S 27°31' E 153°38'9 9.3
2015-Feb-05 06:33S 27°40' E 153°39'9 9.3
2015-Feb-05 05:33S 27°49' E 153°40'9 9.5
2015-Feb-05 04:33S 27°59' E 153°41'9 9.5
2015-Feb-05 03:33S 28°08' E 153°42'268 9.8
2015-Feb-04 00:06S 32°30' E 152°37'610.4
2015-Feb-03 23:32S 32°34' E 152°32'1010.3
2015-Feb-03 22:33S 32°41' E 152°24'1010.3
2015-Feb-03 21:33S 32°49' E 152°15'1010.0
2015-Feb-03 20:33S 32°53' E 152°04'10 9.8
2015-Feb-03 19:33S 32°57' E 151°54'6 6.0
2015-Feb-03 18:33S 32°55' E 151°47'1 1.1
2015-Feb-03 17:33S 32°54' E 151°46'0 0.0
2015-Feb-03 16:33S 32°54' E 151°46'0 0.1
2015-Feb-03 15:33S 32°54' E 151°46'0 0.0
2015-Feb-03 14:33S 32°54' E 151°46'0 0.0
2015-Feb-03 13:33S 32°54' E 151°46'0 0.0
2015-Feb-03 12:33S 32°54' E 151°46'0 0.1
2015-Feb-03 11:33S 32°54' E 151°46'0 0.1
2015-Feb-03 10:33S 32°54' E 151°46'0 0.0
2015-Feb-03 09:33S 32°54' E 151°46'0 0.1
2015-Feb-03 08:33S 32°54' E 151°46'0 0.1
2015-Feb-03 07:33S 32°54' E 151°46'0 0.0
2015-Feb-03 06:33S 32°54' E 151°46'0 0.1
2015-Feb-03 05:33S 32°54' E 151°46'0 0.1
2015-Feb-03 04:33S 32°54' E 151°46'0 0.0
2015-Feb-03 03:33S 32°54' E 151°46'0 0.0
2015-Feb-03 02:33S 32°54' E 151°46'0 0.1
2015-Feb-03 01:33S 32°54' E 151°46'0 0.0
2015-Feb-03 00:33S 32°54' E 151°46'0 0.1
2015-Feb-02 23:33S 32°54' E 151°46'0 0.0
2015-Feb-02 22:33S 32°54' E 151°46'0 0.1
2015-Feb-02 21:33S 32°54' E 151°46'0 0.1
2015-Feb-02 20:33S 32°54' E 151°46'0 0.0
2015-Feb-02 19:33S 32°54' E 151°46'0 0.0
2015-Feb-02 18:33S 32°54' E 151°46'0 0.1
2015-Feb-02 17:33S 32°54' E 151°46'0 0.0
2015-Feb-02 16:33S 32°54' E 151°46'1 0.5
2015-Feb-02 15:33S 32°54' E 151°46'6 5.6
2015-Feb-02 14:33S 32°57' E 151°51'4 4.5
2015-Feb-02 13:33S 33°01' E 151°53'3 2.8
2015-Feb-02 12:31S 33°01' E 151°56'2 1.7
2015-Feb-02 11:31S 33°03' E 151°57'1 1.3
2015-Feb-02 10:32S 33°04' E 151°55'2 1.8
2015-Feb-02 09:32S 33°05' E 151°56'2 1.9
2015-Feb-02 08:23S 33°08' E 151°56'1 1.5
2015-Feb-02 07:29S 33°09' E 151°57'1 1.0
2015-Feb-02 06:26S 33°10' E 151°56'3 3.4
2015-Feb-02 05:33S 33°07' E 151°54'3 2.9
2015-Feb-02 04:33S 33°05' E 151°51'1 0.6
2015-Feb-02 03:27S 33°06' E 151°52'0 0.4
2015-Feb-02 02:21S 33°06' E 151°52'0 0.4
2015-Feb-02 01:33S 33°06' E 151°52'0 0.4
2015-Feb-02 00:33S 33°06' E 151°53'1 0.5
2015-Feb-01 23:21S 33°06' E 151°53'1 0.6
2015-Feb-01 22:33S 33°06' E 151°54'1 0.7
2015-Feb-01 21:33S 33°06' E 151°55'1 0.6
2015-Feb-01 20:27S 33°06' E 151°56'1 0.6
2015-Feb-01 19:33S 33°06' E 151°56'1 0.7
2015-Feb-01 18:33S 33°06' E 151°57'1 0.7
2015-Feb-01 17:33S 33°06' E 151°58'1 0.8
2015-Feb-01 16:33S 33°06' E 151°59'1 0.8
2015-Feb-01 15:33S 33°07' E 151°60'1 0.9
2015-Feb-01 14:33S 33°06' E 151°59'3 3.1
2015-Feb-01 13:28S 33°04' E 151°56'1 0.7
2015-Feb-01 12:31S 33°04' E 151°56'1 0.8
2015-Feb-01 11:28S 33°04' E 151°57'1 0.7
2015-Feb-01 10:28S 33°05' E 151°58'1 0.7
2015-Feb-01 09:31S 33°05' E 151°59'1 0.8
2015-Feb-01 08:28S 33°05' E 151°60'1 0.8
2015-Feb-01 07:28S 33°05' E 152°01'1 0.9
2015-Feb-01 06:31S 33°06' E 152°02'2 2.0
2015-Feb-01 05:33S 33°04' E 152°02'4 4.3
2015-Feb-01 04:33S 32°60' E 152°01'0 0.4
2015-Feb-01 03:31S 32°59' E 152°02'1 0.9
2015-Feb-01 02:31S 32°60' E 152°03'1 0.9
2015-Feb-01 01:31S 33°00' E 152°04'1 1.6
2015-Feb-01 00:33S 32°59' E 152°05'2 1.9
2015-Jan-31 23:33S 32°57' E 152°06'1 0.9
2015-Jan-31 22:33S 32°57' E 152°07'1 1.1
2015-Jan-31 21:30S 32°58' E 152°08'1 1.1
2015-Jan-31 20:33S 32°58' E 152°10'1 1.1
2015-Jan-31 19:33S 32°58' E 152°11'1 0.8
2015-Jan-31 18:33S 32°59' E 152°12'4 3.9
2015-Jan-31 17:33S 33°02' E 152°11'4 4.1
2015-Jan-31 16:33S 33°07' E 152°11'3 3.3
2015-Jan-31 15:33S 33°04' E 152°13'3 3.3
2015-Jan-31 14:33S 33°00' E 152°13'3 3.3
2015-Jan-31 13:33S 32°57' E 152°13'2 2.0
2015-Jan-31 12:33S 32°57' E 152°10'3 2.9
2015-Jan-31 11:33S 32°59' E 152°08'3 2.9
2015-Jan-31 10:33S 33°02' E 152°06'1 0.9
2015-Jan-31 09:33S 33°02' E 152°07'3 2.8
2015-Jan-31 08:33S 32°59' E 152°06'3 2.7
2015-Jan-31 07:33S 32°57' E 152°04'3 3.0
2015-Jan-31 06:33S 33°00' E 152°03'3 3.4
2015-Jan-31 05:33S 33°03' E 152°02'0 0.5
2015-Jan-31 04:33S 33°04' E 152°02'4 3.5
2015-Jan-31 03:33S 33°01' E 152°04'3 3.1
2015-Jan-31 02:33S 32°58' E 152°06'4 3.8
2015-Jan-31 01:33S 32°55' E 152°09'9 8.8
2015-Jan-31 00:33S 32°49' E 152°16'10 9.7
2015-Jan-30 23:33S 32°42' E 152°24'10 9.7
2015-Jan-30 22:33S 32°34' E 152°32'10 9.6
2015-Jan-30 21:33S 32°26' E 152°38'11 9.9
2015-Jan-30 20:26S 32°16' E 152°42'9 9.7
2015-Jan-30 19:33S 32°08' E 152°45'  
2015-Jan-27 13:16S 28°17' E 153°43'810.6
2015-Jan-27 12:33S 28°10' E 153°42'1110.7
2015-Jan-27 11:33S 27°59' E 153°42'1111.2
2015-Jan-27 10:33S 27°48' E 153°43'1111.3
2015-Jan-27 09:33S 27°36' E 153°43'1211.5
2015-Jan-27 08:33S 27°25' E 153°43'1111.5
2015-Jan-27 07:33S 27°13' E 153°42'1211.8
2015-Jan-27 06:33S 27°02' E 153°40'1211.7
2015-Jan-27 05:32S 26°50' E 153°41'1711.6
2015-Jan-27 04:04S 26°33' E 153°43'7512.7
2015-Jan-26 22:11S 25°18' E 153°48'  
Track history (hours):
 
Tides and Currents Weather Stations Pressure Air Temp Water Temp Dewpoint Dewpoint Depression Visibility Wind Speed Wind Dir Waves Ship Positions

Glory Ace

Last reported at 2015-Feb-05 11:19 UTC. Time now 2015-Mar-06 06:06 UTC.
Position S 26°53' E 153°40'.
Warning: this ship's position is 28 days out of date.

Length 190 m; draft 11.1 m.

Type: Cargo ship. MMSI: 357130000.

Date/timePositionNaut miles runAvg speedWind from/ knotsBaromVisibWave heightAir tempDewpointWater temp
2015-Feb-05 11:19S 26°53' E 153°40'911.6
2015-Feb-05 10:33S 27°02' E 153°39'1010.3
2015-Feb-05 09:33S 27°12' E 153°39'9 9.2
2015-Feb-05 08:33S 27°22' E 153°39'9 9.2
2015-Feb-05 07:33S 27°31' E 153°38'9 9.3
2015-Feb-05 06:33S 27°40' E 153°39'9 9.3
2015-Feb-05 05:33S 27°49' E 153°40'9 9.5
2015-Feb-05 04:33S 27°59' E 153°41'9 9.5
2015-Feb-05 03:33S 28°08' E 153°42'268 9.8
2015-Feb-04 00:06S 32°30' E 152°37'610.4
2015-Feb-03 23:32S 32°34' E 152°32'1010.3
2015-Feb-03 22:33S 32°41' E 152°24'1010.3
2015-Feb-03 21:33S 32°49' E 152°15'1010.0
2015-Feb-03 20:33S 32°53' E 152°04'10 9.8
2015-Feb-03 19:33S 32°57' E 151°54'6 6.0
2015-Feb-03 18:33S 32°55' E 151°47'1 1.1
2015-Feb-03 17:33S 32°54' E 151°46'0 0.0
2015-Feb-03 16:33S 32°54' E 151°46'0 0.1
2015-Feb-03 15:33S 32°54' E 151°46'0 0.0
2015-Feb-03 14:33S 32°54' E 151°46'0 0.0
2015-Feb-03 13:33S 32°54' E 151°46'0 0.0
2015-Feb-03 12:33S 32°54' E 151°46'0 0.1
2015-Feb-03 11:33S 32°54' E 151°46'0 0.1
2015-Feb-03 10:33S 32°54' E 151°46'0 0.0
2015-Feb-03 09:33S 32°54' E 151°46'0 0.1
2015-Feb-03 08:33S 32°54' E 151°46'0 0.1
2015-Feb-03 07:33S 32°54' E 151°46'0 0.0
2015-Feb-03 06:33S 32°54' E 151°46'0 0.1
2015-Feb-03 05:33S 32°54' E 151°46'0 0.1
2015-Feb-03 04:33S 32°54' E 151°46'0 0.0
2015-Feb-03 03:33S 32°54' E 151°46'0 0.0
2015-Feb-03 02:33S 32°54' E 151°46'0 0.1
2015-Feb-03 01:33S 32°54' E 151°46'0 0.0
2015-Feb-03 00:33S 32°54' E 151°46'0 0.1
2015-Feb-02 23:33S 32°54' E 151°46'0 0.0
2015-Feb-02 22:33S 32°54' E 151°46'0 0.1
2015-Feb-02 21:33S 32°54' E 151°46'0 0.1
2015-Feb-02 20:33S 32°54' E 151°46'0 0.0
2015-Feb-02 19:33S 32°54' E 151°46'0 0.0
2015-Feb-02 18:33S 32°54' E 151°46'0 0.1
2015-Feb-02 17:33S 32°54' E 151°46'0 0.0
2015-Feb-02 16:33S 32°54' E 151°46'1 0.5
2015-Feb-02 15:33S 32°54' E 151°46'6 5.6
2015-Feb-02 14:33S 32°57' E 151°51'4 4.5
2015-Feb-02 13:33S 33°01' E 151°53'3 2.8
2015-Feb-02 12:31S 33°01' E 151°56'2 1.7
2015-Feb-02 11:31S 33°03' E 151°57'1 1.3
2015-Feb-02 10:32S 33°04' E 151°55'2 1.8
2015-Feb-02 09:32S 33°05' E 151°56'2 1.9
2015-Feb-02 08:23S 33°08' E 151°56'1 1.5
2015-Feb-02 07:29S 33°09' E 151°57'1 1.0
2015-Feb-02 06:26S 33°10' E 151°56'3 3.4
2015-Feb-02 05:33S 33°07' E 151°54'3 2.9
2015-Feb-02 04:33S 33°05' E 151°51'1 0.6
2015-Feb-02 03:27S 33°06' E 151°52'0 0.4
2015-Feb-02 02:21S 33°06' E 151°52'0 0.4
2015-Feb-02 01:33S 33°06' E 151°52'0 0.4
2015-Feb-02 00:33S 33°06' E 151°53'1 0.5
2015-Feb-01 23:21S 33°06' E 151°53'1 0.6
2015-Feb-01 22:33S 33°06' E 151°54'1 0.7
2015-Feb-01 21:33S 33°06' E 151°55'1 0.6
2015-Feb-01 20:27S 33°06' E 151°56'1 0.6
2015-Feb-01 19:33S 33°06' E 151°56'1 0.7
2015-Feb-01 18:33S 33°06' E 151°57'1 0.7
2015-Feb-01 17:33S 33°06' E 151°58'1 0.8
2015-Feb-01 16:33S 33°06' E 151°59'1 0.8
2015-Feb-01 15:33S 33°07' E 151°60'1 0.9
2015-Feb-01 14:33S 33°06' E 151°59'3 3.1
2015-Feb-01 13:28S 33°04' E 151°56'1 0.7
2015-Feb-01 12:31S 33°04' E 151°56'1 0.8
2015-Feb-01 11:28S 33°04' E 151°57'1 0.7
2015-Feb-01 10:28S 33°05' E 151°58'1 0.7
2015-Feb-01 09:31S 33°05' E 151°59'1 0.8
2015-Feb-01 08:28S 33°05' E 151°60'1 0.8
2015-Feb-01 07:28S 33°05' E 152°01'1 0.9
2015-Feb-01 06:31S 33°06' E 152°02'2 2.0
2015-Feb-01 05:33S 33°04' E 152°02'4 4.3
2015-Feb-01 04:33S 32°60' E 152°01'0 0.4
2015-Feb-01 03:31S 32°59' E 152°02'1 0.9
2015-Feb-01 02:31S 32°60' E 152°03'1 0.9
2015-Feb-01 01:31S 33°00' E 152°04'1 1.6
2015-Feb-01 00:33S 32°59' E 152°05'2 1.9
2015-Jan-31 23:33S 32°57' E 152°06'1 0.9
2015-Jan-31 22:33S 32°57' E 152°07'1 1.1
2015-Jan-31 21:30S 32°58' E 152°08'1 1.1
2015-Jan-31 20:33S 32°58' E 152°10'1 1.1
2015-Jan-31 19:33S 32°58' E 152°11'1 0.8
2015-Jan-31 18:33S 32°59' E 152°12'4 3.9
2015-Jan-31 17:33S 33°02' E 152°11'4 4.1
2015-Jan-31 16:33S 33°07' E 152°11'3 3.3
2015-Jan-31 15:33S 33°04' E 152°13'3 3.3
2015-Jan-31 14:33S 33°00' E 152°13'3 3.3
2015-Jan-31 13:33S 32°57' E 152°13'2 2.0
2015-Jan-31 12:33S 32°57' E 152°10'3 2.9
2015-Jan-31 11:33S 32°59' E 152°08'3 2.9
2015-Jan-31 10:33S 33°02' E 152°06'1 0.9
2015-Jan-31 09:33S 33°02' E 152°07'3 2.8
2015-Jan-31 08:33S 32°59' E 152°06'3 2.7
2015-Jan-31 07:33S 32°57' E 152°04'3 3.0
2015-Jan-31 06:33S 33°00' E 152°03'3 3.4
2015-Jan-31 05:33S 33°03' E 152°02'0 0.5
2015-Jan-31 04:33S 33°04' E 152°02'4 3.5
2015-Jan-31 03:33S 33°01' E 152°04'3 3.1
2015-Jan-31 02:33S 32°58' E 152°06'4 3.8
2015-Jan-31 01:33S 32°55' E 152°09'9 8.8
2015-Jan-31 00:33S 32°49' E 152°16'10 9.7
2015-Jan-30 23:33S 32°42' E 152°24'10 9.7
2015-Jan-30 22:33S 32°34' E 152°32'10 9.6
2015-Jan-30 21:33S 32°26' E 152°38'11 9.9
2015-Jan-30 20:26S 32°16' E 152°42'9 9.7
2015-Jan-30 19:33S 32°08' E 152°45'  
2015-Jan-27 13:16S 28°17' E 153°43'810.6
2015-Jan-27 12:33S 28°10' E 153°42'1110.7
2015-Jan-27 11:33S 27°59' E 153°42'1111.2
2015-Jan-27 10:33S 27°48' E 153°43'1111.3
2015-Jan-27 09:33S 27°36' E 153°43'1211.5
2015-Jan-27 08:33S 27°25' E 153°43'1111.5
2015-Jan-27 07:33S 27°13' E 153°42'1211.8
2015-Jan-27 06:33S 27°02' E 153°40'1211.7
2015-Jan-27 05:32S 26°50' E 153°41'1711.6
2015-Jan-27 04:04S 26°33' E 153°43'7512.7
2015-Jan-26 22:11S 25°18' E 153°48'  

Dump ship's entire track history